CAPE
147 311 571 901 1186 912 772 1270 1263 1149 1054 1043 995 1068 1279 899 283 221 145 340 1022 1009 1030 1156 883 924 1130 1002 827 613 436 290 179
25 51 262 558 999 1160 974 1156 1250 1104 1136 1106 1042 1432 925 417 202 144 221 248 974 1017 754 987 872 947 955 800 636 368 249 114 138
13 46 83 366 733 928 1012 1170 1143 1152 1077 1182 1272 1187 719 279 166 136 203 406 908 809 836 738 687 912 978 753 533 325 196 47 59
0 36 133 206 348 679 924 1061 1045 926 1043 1169 1291 1130 862 300 188 281 299 378 679 786 732 348 270 707 667 545 584 390 222 0 91
0 0 62 242 207 268 454 833 834 1113 971 1132 965 891 735 480 257 227 222 675 723 618 469 190 16 260 737 955 932 688 486 53 214
0 0 45 224 293 458 399 616 800 744 572 468 627 743 500 400 346 224 244 968 801 621 476 570 670 1073 948 1020 1051 899 480 112 251
0 0 1 52 100 204 413 540 773 322 362 351 354 269 313 358 330 261 371 885 889 888 875 556 507 455 522 991 733 569 565 324 564
1 0 3 4 8 88 265 378 324 262 180 316 295 306 253 237 275 357 353 574 669 882 1092 535 439 328 405 817 513 551 584 557 617
1 2 0 0 4 34 149 333 373 285 230 191 127 195 192 246 233 236 156 324 614 800 577 417 252 288 345 363 582 470 447 429 450
1 4 2 5 0 0 9 102 430 350 263 159 105 81 96 173 137 104 101 75 147 338 376 284 254 137 110 331 424 530 526 352 518
2 1 2 2 2 1 2 0 25 162 202 240 159 107 60 92 124 109 78 90 76 98 196 161 114 153 165 129 297 463 533 317 371
0 0 0 1 0 2 3 0 0 2 18 88 90 90 72 65 121 73 76 92 93 93 121 144 194 215 149 160 223 163 295 473 383
0 0 0 0 0 0 0 0 0 0 0 1 24 77 29 46 85 67 48 104 111 110 191 230 236 239 217 234 257 204 281 343 250
0 0 0 0 0 0 0 0 0 0 0 0 0 0 3 0 13 91 83 60 59 115 122 120 189 230 190 169 248 223 217 236 163
0 0 0 0 0 0 0 0 0 0 0 0 0 0 0 0 0 0 3 4 43 68 83 81 76 66 161 188 245 200 172 162 191
0 0 0 0 0 0 0 0 0 0 0 0 0 0 0 0 0 1 16 18 11 18 25 29 85 62 53 72 49 84 261 213 233
0 0 0 0 0 0 0 0 0 0 0 0 0 0 0 4 4 4 6 14 14 11 19 38 32 72 75 36 57 42 34 30 122
0 0 0 0 0 0 0 0 0 0 0 0 0 0 0 0 0 2 5 10 4 14 16 23 12 21 11 27 54 64 13 53 99
0 0 0 0 0 0 0 0 0 0 0 0 0 0 0 0 0 0 0 1 7 8 5 1 9 6 25 10 2 13 2 19 61
0 0 0 0 0 0 0 0 0 0 0 0 0 0 0 0 0 0 0 0 0 2 4 10 9 11 9 17 6 19 32 14 7
CIN
-111 -53 -17 -1 -0 -1 -5 -0 -0 -1 -2 -1 -0 -0 -1 -10 -38 -31 -16 -16 -13 -2 -2 -0 -3 -3 -0 -0 -0 -0 -0 -1 -17
-154 -149 -64 -5 -0 -0 -0 -0 -0 -1 -2 -1 -0 -0 -6 -28 -35 -33 -50 -20 -8 -4 -4 -0 -0 -2 -1 -0 -0 -4 -6 -29 -27
-139 -163 -112 -30 -0 -0 -0 -0 -0 -1 -2 -1 -0 -2 -16 -40 -30 -29 -31 -47 -8 -8 -4 -7 -2 -1 -1 -3 -0 -1 -16 -55 -55
-0 -119 -124 -73 -20 -0 -0 -0 -0 -2 -1 -1 -1 -3 -9 -45 -46 -60 -66 -56 -15 -10 -4 -10 -9 -4 -7 -9 -2 -4 -8 -0 -30
-0 -0 -176 -71 -80 -77 -11 -0 -3 -1 -3 -2 -5 -6 -13 -30 -38 -26 -67 -21 -13 -12 -14 -42 -58 -1 -4 -0 -0 -0 -0 -50 -5
-0 -0 -98 -48 -41 -14 -31 -0 -1 -7 -19 -33 -28 -11 -26 -45 -30 -40 -30 -14 -7 -7 -10 -0 -1 -0 -0 -0 -0 -0 -0 -24 -1
-0 -0 -0 -165 -110 -72 -17 -6 -2 -23 -22 -23 -17 -29 -55 -58 -45 -49 -44 -7 -4 -4 -7 -12 -3 -1 -1 -0 -0 -0 -0 -2 -0
-0 -0 -0 -33 -247 -132 -26 -15 -31 -20 -58 -26 -26 -21 -48 -64 -69 -58 -63 -16 -8 -3 -4 -11 -6 -2 -0 -2 -5 -2 -0 -0 -1
-0 -0 -0 -1 -21 -214 -82 -4 -3 -7 -6 -14 -41 -37 -36 -32 -46 -18 -18 -44 -13 -2 -7 -17 -15 -4 -3 -2 -2 -6 -2 -2 -3
-0 -0 -0 -0 -0 -0 -156 -77 -0 -0 -2 -5 -16 -21 -51 -29 -103 -38 -51 -37 -30 -15 -4 -4 -6 -1 -8 -2 -0 -3 -1 -2 -1
-0 -0 -0 -0 -0 -0 -0 -0 -128 -18 -1 -0 -0 -1 -16 -30 -22 -44 -50 -10 -26 -22 -6 -6 -5 -1 -1 -0 -4 -0 -1 -1 -2
-0 -0 -0 -1 -0 -1 -0 -0 -0 -0 -79 -1 -1 -7 -4 -14 -0 -19 -2 -8 -23 -12 -9 -9 -9 -1 -5 -3 -2 -14 -4 -0 -1
-0 -0 -0 -0 -0 -0 -0 -0 -0 -0 -0 -0 -16 -0 -10 -5 -4 -10 -0 -5 -2 -0 -0 -0 -0 -1 -25 -3 -0 -0 -3 -3 -9
-0 -0 -0 -0 -0 -0 -0 -0 -0 -0 -0 -0 -0 -0 -0 -0 -20 -39 -12 -9 -2 -1 -3 -9 -10 -5 -8 -9 -1 -1 -0 -1 -5
-0 -0 -0 -0 -0 -0 -0 -0 -0 -0 -0 -0 -0 -0 -0 -0 -0 -0 -4 -26 -16 -21 -1 -0 -1 -3 -8 -0 -0 -3 -2 -0 -0
-0 -0 -0 -0 -0 -0 -0 -0 -0 -0 -0 -0 -0 -0 -0 -0 -0 -0 -1 -0 -0 -1 -37 -51 -1 -20 -6 -0 -3 -2 -0 -0 -0
-0 -0 -0 -0 -0 -0 -0 -0 -0 -0 -0 -0 -0 -0 -0 -0 -0 -0 -0 -0 -1 -0 -0 -77 -2 -31 -22 -12 -19 -9 -5 -6 -0
-0 -0 -0 -0 -0 -0 -0 -0 -0 -0 -0 -0 -0 -0 -0 -0 -0 -1 -0 -0 -0 -0 -0 -0 -0 -0 -1 -16 -38 -32 -26 -4 -6
-0 -0 -0 -0 -0 -0 -0 -0 -0 -0 -0 -0 -0 -0 -0 -0 -0 -0 -0 -1 -0 -0 -0 -1 -0 -0 -0 -2 -4 -60 -19 -63 -0
-0 -0 -0 -0 -0 -0 -0 -0 -0 -0 -0 -0 -0 -0 -0 -0 -0 -0 -0 -0 -0 -1 -0 -0 -0 -0 -0 -0 -1 -0 -65 -62 -0
Wind_Speed
23 27 30 32 31 29 29 28 30 29 27 22 20 20 19 18 17 16 14 14 17 15 16 17 18 20 22 25 27 28 28 26 24
nan nan 25 31 33 31 31 30 29 30 22 26 25 21 21 22 20 18 17 15 19 19 16 16 18 21 23 24 28 29 29 28 24
nan nan nan 27 33 36 33 33 32 29 24 24 28 25 22 23 21 25 21 22 21 22 22 22 20 21 23 26 29 27 28 nan nan
nan nan 22 27 36 40 39 38 34 33 28 27 25 29 25 24 24 24 29 25 24 24 27 31 27 23 26 27 28 27 26 nan nan
nan nan nan 25 33 39 42 41 38 36 31 35 29 29 31 29 26 28 21 20 26 28 30 31 nan 21 26 25 25 26 27 nan 27
nan nan nan 32 34 37 41 41 38 37 40 35 33 32 31 36 30 31 31 27 28 31 32 25 26 29 23 27 25 26 26 26 27
nan nan nan nan 38 42 45 48 42 44 43 38 40 38 33 31 31 33 29 28 30 32 34 32 35 34 35 27 25 25 26 27 27
nan nan nan nan nan nan 38 42 44 44 43 40 39 36 36 37 38 34 31 31 33 34 37 37 35 40 38 30 28 30 29 28 29
nan nan nan nan nan nan 35 36 39 42 43 42 40 38 36 36 41 43 36 39 32 35 38 40 38 42 40 35 34 35 34 33 31
nan nan nan nan nan nan nan 38 39 40 43 43 40 nan nan 42 44 41 51 nan 41 47 41 40 37 28 38 42 40 38 35 33 32
nan nan nan nan nan nan nan nan nan 39 40 44 46 48 nan nan 38 44 nan nan nan nan 52 47 45 42 27 23 40 45 41 36 35
nan nan nan nan nan nan nan nan nan nan nan nan nan nan nan nan 38 nan nan nan nan nan 38 52 53 47 47 44 33 37 43 40 38
nan nan nan nan nan nan nan nan nan nan nan nan nan nan nan nan nan nan nan 36 34 34 27 31 32 37 39 35 48 47 37 42 39
nan nan nan nan nan nan nan nan nan nan nan nan nan nan nan nan nan nan nan nan nan 39 39 32 33 27 25 28 31 35 42 35 49
nan nan nan nan nan nan nan nan nan nan nan nan nan nan nan nan nan nan nan nan nan nan nan nan nan nan 33 31 30 36 34 31 38
nan nan nan nan nan nan nan nan nan nan nan nan nan nan nan nan nan nan nan nan nan nan nan nan nan nan nan nan nan nan 23 34 38
nan nan nan nan nan nan nan nan nan nan nan nan nan nan nan nan nan nan nan nan nan nan nan nan nan nan nan nan nan nan nan nan 36
nan nan nan nan nan nan nan nan nan nan nan nan nan nan nan nan nan nan nan nan nan nan nan nan nan nan nan nan nan nan nan nan nan
nan nan nan nan nan nan nan nan nan nan nan nan nan nan nan nan nan nan nan nan nan nan nan nan nan nan nan nan nan nan nan nan nan
nan nan nan nan nan nan nan nan nan nan nan nan nan nan nan nan nan nan nan nan nan nan nan nan nan nan nan nan nan nan nan nan nan
Wind_Direction
242 239 238 235 237 242 240 240 258 261 243 240 239 235 232 222 225 231 231 246 269 262 259 240 240 247 247 236 234 231 226 228 229
nan nan 248 245 239 243 239 241 244 256 256 249 242 232 234 225 227 224 230 239 260 259 252 254 253 253 253 240 236 233 229 226 227
nan nan nan 255 243 241 240 238 241 244 246 244 241 238 234 232 225 219 229 242 257 256 252 253 257 261 250 240 236 233 231 nan nan
nan nan 257 263 247 238 236 240 234 239 235 237 236 235 233 233 229 225 225 237 247 254 254 250 244 251 248 235 235 234 233 nan nan
nan nan nan 267 250 237 233 232 233 236 235 235 229 232 236 235 225 223 219 239 247 255 256 258 nan 243 240 234 227 234 236 nan 236
nan nan nan 257 251 242 235 230 233 238 234 229 231 230 238 237 231 231 227 245 253 256 263 253 257 252 250 239 231 231 238 237 240
nan nan nan nan 244 243 240 235 233 237 242 239 227 234 234 235 235 233 239 249 248 255 258 254 248 244 250 254 228 231 236 239 241
nan nan nan nan nan nan 247 244 243 238 242 240 230 228 238 244 240 234 233 242 252 248 249 251 248 248 249 255 250 245 236 237 238
nan nan nan nan nan nan 248 250 243 240 237 240 240 230 230 233 238 233 227 232 250 244 252 250 245 236 238 241 242 241 242 238 235
nan nan nan nan nan nan nan 250 248 242 236 235 238 nan nan 241 241 242 234 nan 229 240 245 251 247 252 218 224 236 237 238 238 240
nan nan nan nan nan nan nan nan nan 250 242 239 236 236 nan nan 240 235 nan nan nan nan 233 237 232 236 250 221 230 230 235 236 237
nan nan nan nan nan nan nan nan nan nan nan nan nan nan nan nan 227 nan nan nan nan nan 238 239 234 227 229 223 220 224 232 231 232
nan nan nan nan nan nan nan nan nan nan nan nan nan nan nan nan nan nan nan 234 239 236 239 238 245 241 233 228 224 219 223 224 229
nan nan nan nan nan nan nan nan nan nan nan nan nan nan nan nan nan nan nan nan nan 232 240 242 246 251 248 242 227 228 220 222 222
nan nan nan nan nan nan nan nan nan nan nan nan nan nan nan nan nan nan nan nan nan nan nan nan nan nan 252 251 240 231 224 210 228
nan nan nan nan nan nan nan nan nan nan nan nan nan nan nan nan nan nan nan nan nan nan nan nan nan nan nan nan nan nan 223 237 221
nan nan nan nan nan nan nan nan nan nan nan nan nan nan nan nan nan nan nan nan nan nan nan nan nan nan nan nan nan nan nan nan 228
nan nan nan nan nan nan nan nan nan nan nan nan nan nan nan nan nan nan nan nan nan nan nan nan nan nan nan nan nan nan nan nan nan
nan nan nan nan nan nan nan nan nan nan nan nan nan nan nan nan nan nan nan nan nan nan nan nan nan nan nan nan nan nan nan nan nan
nan nan nan nan nan nan nan nan nan nan nan nan nan nan nan nan nan nan nan nan nan nan nan nan nan nan nan nan nan nan nan nan nan